Weather History for Denver, CO

Change the Weather History Date:

Friday, December 7, 2012

  Actual Average (KDEN) Record (KDEN)
Temperature  
Mean Temperature 40 °F 30 °F  
Max Temperature 53 °F 43 °F 70 °F (1906)
Min Temperature 28 °F 17 °F -13 °F (2005)
Degree Days  
Heating Degree Days 24 35  
Month to date heating degree days 237  
Since 1 July heating degree days 1619  
Cooling Degree Days 0 0  
Month to date cooling degree days 0  
Year to date cooling degree days 769  
Moisture  
Dew Point 26 °F    
Average Humidity 65    
Maximum Humidity 93    
Minimum Humidity 30    
Precipitation  
Precipitation 0.00 in 0.01 in 0.35 in (1988)
Month to date precipitation 0.08  
Year to date precipitation 14.03  
Snow  
Snow 0.00 in - - ()
Month to date snowfall  
Since 1 July snowfall  
Snow Depth -    
Sea Level Pressure  
Sea Level Pressure 29.86 in    
Wind  
Wind Speed 8 mph (SE)    
Max Wind Speed 20 mph    
Max Gust Speed 24 mph    
Visibility 10 miles    
Events      
T = Trace of Precipitation, MM = Missing Value Source: NWS Daily Summary

Daily Weather History Graph

Daily Weather History Graph

Search for Another Location

Airport:

Trip Planner

Search our weather history database for the weather conditions in past years. The results will help you decide how hot, cold, wet, or windy it might be!

Date:

Astronomy

Dec. 07, 2012 Rise Set
Actual Time 7:06 AM MST 4:33 PM MST
Civil Twilight 6:36 AM MST 5:03 PM MST
Nautical Twilight 6:02 AM MST 5:37 PM MST
Astronomical Twilight 5:29 AM MST 6:10 PM MST
Moon 12:28 AM MST (12/7) 12:31 PM MST (12/7)
Length of Visible Light 10h 27m
Length of Day
9h 27m
Last Quarter, 38% of the Moon is Illuminated
Dec 7
Last Quarter
Dec 13
New
Dec 19
First Quarter
Dec 28
Full
Jan 4
Last Quarter

Hourly Weather History & Observations

Time (MST) Temp. Windchill Dew Point Humidity Pressure Visibility Wind Dir Wind Speed Gust Speed Precip Events Conditions
12:01 AM 33.8 °F 26.4 °F 30.2 °F 87% 29.86 in 10.0 mi SSW 9.2 mph - N/A   Clear
12:21 AM 32.0 °F 27.5 °F 30.2 °F 93% 29.86 in 10.0 mi SSW 4.6 mph - N/A   Clear
12:41 AM 32.0 °F 26.4 °F 30.2 °F 93% 29.84 in 10.0 mi SSW 5.8 mph - N/A   Clear
1:00 AM 33.8 °F 27.0 °F 30.2 °F 87% 29.83 in 10.0 mi SW 8.1 mph - N/A   Clear
1:21 AM 33.8 °F 26.4 °F 30.2 °F 87% 29.83 in 10.0 mi SW 9.2 mph - N/A   Clear
1:41 AM 33.8 °F 26.4 °F 30.2 °F 87% 29.83 in 10.0 mi SW 9.2 mph - N/A   Clear
2:00 AM 35.6 °F 28.0 °F 30.2 °F 81% 29.83 in 10.0 mi SW 10.4 mph - N/A   Clear
2:21 AM 33.8 °F 25.3 °F 30.2 °F 87% 29.81 in 10.0 mi SW 11.5 mph - N/A   Clear
2:41 AM 35.6 °F 31.7 °F 28.4 °F 75% 29.81 in 10.0 mi SW 4.6 mph - N/A   Clear
3:01 AM 32.0 °F - 28.4 °F 87% 29.80 in 10.0 mi Calm Calm - N/A   Clear
3:21 AM 33.8 °F - 28.4 °F 81% 29.80 in 10.0 mi Calm Calm - N/A   Clear
3:41 AM 35.6 °F 29.9 °F 28.4 °F 75% 29.79 in 10.0 mi SW 6.9 mph - N/A   Clear
4:01 AM 35.6 °F 31.7 °F 28.4 °F 75% 29.79 in 10.0 mi SW 4.6 mph - N/A   Clear
4:21 AM 33.8 °F - 26.6 °F 75% 29.79 in 10.0 mi Calm Calm - N/A   Clear
4:41 AM 33.8 °F 30.8 °F 26.6 °F 75% 29.79 in 10.0 mi North 3.5 mph - N/A   Clear
5:01 AM 32.0 °F - 26.6 °F 80% 29.80 in 10.0 mi Calm Calm - N/A   Clear
5:21 AM 30.2 °F - 26.6 °F 86% 29.80 in 10.0 mi Calm Calm - N/A   Clear
5:41 AM 30.2 °F 24.3 °F 26.6 °F 86% 29.81 in 10.0 mi West 5.8 mph - N/A   Clear
6:01 AM 28.4 °F - 24.8 °F 86% 29.81 in 10.0 mi Calm Calm - N/A   Clear
6:20 AM 30.2 °F 25.4 °F 26.6 °F 86% 29.81 in 10.0 mi SSW 4.6 mph - N/A   Clear
6:41 AM 30.2 °F 25.4 °F 26.6 °F 86% 29.81 in 10.0 mi SSW 4.6 mph - N/A   Clear
7:01 AM 30.2 °F 22.6 °F 26.6 °F 86% 29.81 in 10.0 mi WSW 8.1 mph - N/A   Clear
7:21 AM 32.0 °F 27.5 °F 26.6 °F 80% 29.83 in 10.0 mi SW 4.6 mph - N/A   Clear
7:41 AM 30.2 °F 25.4 °F 26.6 °F 86% 29.83 in 10.0 mi WSW 4.6 mph - N/A   Clear
8:01 AM 33.8 °F 27.7 °F 26.6 °F 75% 29.83 in 10.0 mi SW 6.9 mph - N/A   Clear
8:21 AM 33.8 °F 29.6 °F 26.6 °F 75% 29.84 in 10.0 mi WSW 4.6 mph - N/A   Clear
8:41 AM 37.4 °F 32.8 °F 28.4 °F 70% 29.85 in 10.0 mi WSW 5.8 mph - N/A   Clear
8:55 AM 41.0 °F 37.1 °F 26.6 °F 57% 29.85 in 50.0 mi SSW 5.8 mph - N/A   Mostly Cloudy
9:01 AM 41.0 °F 37.1 °F 28.4 °F 61% 29.85 in 10.0 mi SW 5.8 mph - N/A   Clear
9:21 AM 42.8 °F 40.1 °F 28.4 °F 57% 29.85 in 10.0 mi SW 4.6 mph - N/A   Clear
9:40 AM 44.6 °F - 26.6 °F 49% 29.86 in 10.0 mi Calm Calm - N/A   Clear
9:47 AM 48.2 °F - 23.0 °F 37% 29.85 in 50.0 mi Calm Calm - N/A   Scattered Clouds
10:01 AM 48.2 °F - 23.0 °F 37% 29.86 in 10.0 mi NNE 3.5 mph - N/A   Clear
10:21 AM 50.0 °F - 23.0 °F 35% 29.86 in 10.0 mi North 5.8 mph - N/A   Clear
10:41 AM 50.0 °F - 23.0 °F 35% 29.85 in 10.0 mi Calm Calm - N/A   Clear
11:01 AM 51.8 °F - 21.2 °F 30% 29.85 in 10.0 mi Calm Calm - N/A   Clear
11:21 AM 53.6 °F - 23.0 °F 30% 29.84 in 10.0 mi Calm Calm - N/A   Clear
11:41 AM 51.8 °F - 23.0 °F 33% 29.83 in 10.0 mi ENE 6.9 mph - N/A   Scattered Clouds
12:01 PM 48.2 °F - 28.4 °F 46% 29.84 in 10.0 mi NE 19.6 mph - N/A   Clear
12:21 PM 46.4 °F 39.2 °F 28.4 °F 50% 29.83 in 10.0 mi ENE 18.4 mph - N/A   Clear
12:40 PM 46.4 °F 39.8 °F 28.4 °F 50% 29.83 in 10.0 mi ENE 16.1 mph 24.2 mph N/A   Scattered Clouds
1:01 PM 46.4 °F 39.0 °F 28.4 °F 50% 29.83 in 10.0 mi ENE 19.6 mph 24.2 mph N/A   Mostly Cloudy
1:21 PM 42.8 °F 34.8 °F 26.6 °F 53% 29.83 in 10.0 mi East 17.3 mph 21.9 mph N/A   Scattered Clouds
1:41 PM 42.8 °F 34.5 °F 26.6 °F 53% 29.83 in 10.0 mi East 18.4 mph - N/A   Scattered Clouds
2:01 PM 42.8 °F 35.1 °F 26.6 °F 53% 29.83 in 10.0 mi East 16.1 mph - N/A   Clear
2:21 PM 42.8 °F 34.8 °F 26.6 °F 53% 29.84 in 10.0 mi East 17.3 mph 21.9 mph N/A   Clear
2:41 PM 44.6 °F 37.2 °F 26.6 °F 49% 29.84 in 10.0 mi East 17.3 mph - N/A   Mostly Cloudy
2:47 PM 44.6 °F 37.2 °F 24.8 °F 46% 29.85 in 50.0 mi ENE 17.3 mph 21.9 mph N/A   Mostly Cloudy
2:59 PM 44.6 °F 37.2 °F 24.8 °F 46% 29.85 in 10.0 mi East 17.3 mph 21.9 mph N/A   Mostly Cloudy
3:21 PM 44.6 °F 37.8 °F 24.8 °F 46% 29.86 in 10.0 mi East 15.0 mph - N/A   Mostly Cloudy
3:39 PM 42.8 °F 36.2 °F 23.0 °F 46% 29.87 in 10.0 mi East 12.7 mph - N/A   Scattered Clouds
3:57 PM 42.8 °F 36.6 °F 23.0 °F 46% 29.87 in 10.0 mi East 11.5 mph - N/A   Clear
4:21 PM 39.2 °F 33.0 °F 23.0 °F 52% 29.89 in 10.0 mi East 9.2 mph - N/A   Clear
4:39 PM 37.4 °F 30.3 °F 23.0 °F 56% 29.90 in 10.0 mi East 10.4 mph - N/A   Clear
4:47 PM 35.6 °F 29.2 °F 21.2 °F 56% 29.90 in 20.0 mi East 8.1 mph - N/A   Mostly Cloudy
5:01 PM 33.8 °F 26.4 °F 23.0 °F 65% 29.90 in 10.0 mi East 9.2 mph - N/A   Scattered Clouds
5:20 PM 33.8 °F 27.0 °F 23.0 °F 65% 29.91 in 10.0 mi East 8.1 mph - N/A   Scattered Clouds
5:40 PM 33.8 °F 27.7 °F 23.0 °F 65% 29.91 in 10.0 mi ESE 6.9 mph - N/A   Mostly Cloudy
6:21 PM 33.8 °F 27.0 °F 23.0 °F 65% 29.91 in 10.0 mi ESE 8.1 mph - N/A   Mostly Cloudy
6:39 PM 33.8 °F 26.4 °F 23.0 °F 65% 29.93 in 10.0 mi ESE 9.2 mph - N/A   Mostly Cloudy
6:47 PM 33.8 °F 27.0 °F 21.2 °F 60% 29.92 in 10.0 mi ESE 8.1 mph - N/A   Mostly Cloudy
7:00 PM 33.8 °F 28.6 °F 23.0 °F 65% 29.93 in 10.0 mi SE 5.8 mph - N/A   Overcast
7:21 PM 35.6 °F 28.6 °F 23.0 °F 60% 29.93 in 10.0 mi East 9.2 mph - N/A   Overcast
7:41 PM 35.6 °F 28.0 °F 23.0 °F 60% 29.93 in 10.0 mi ESE 10.4 mph - N/A   Overcast
7:47 PM 37.4 °F 31.4 °F 21.2 °F 52% 29.93 in 10.0 mi ESE 8.1 mph - N/A   Overcast
7:59 PM 35.6 °F 28.6 °F 23.0 °F 60% 29.93 in 10.0 mi SE 9.2 mph - N/A   Overcast
8:19 PM 35.6 °F 28.6 °F 23.0 °F 60% 29.93 in 10.0 mi SE 9.2 mph - N/A   Overcast
8:41 PM 35.6 °F 28.6 °F 23.0 °F 60% 29.93 in 10.0 mi ESE 9.2 mph - N/A   Overcast
8:47 PM 37.4 °F 30.3 °F 24.8 °F 60% 29.93 in 10.0 mi ESE 10.4 mph - N/A   Overcast
9:01 PM 35.6 °F 27.1 °F 26.6 °F 70% 29.94 in 10.0 mi SE 12.7 mph 16.1 mph N/A   Overcast
9:21 PM 35.6 °F 27.1 °F 26.6 °F 70% 29.93 in 10.0 mi SSE 12.7 mph - N/A   Overcast
9:39 PM 33.8 °F 23.9 °F 26.6 °F 75% 29.93 in 10.0 mi SSE 15.0 mph - N/A   Overcast
9:58 PM 33.8 °F 25.8 °F 26.6 °F 75% 29.92 in 10.0 mi SSE 10.4 mph - N/A   Overcast
10:20 PM 32.0 °F 22.5 °F 26.6 °F 80% 29.91 in 10.0 mi SSE 12.7 mph - N/A   Overcast
10:41 PM 32.0 °F 21.6 °F 26.6 °F 80% 29.91 in 10.0 mi SSE 15.0 mph 19.6 mph N/A   Overcast
11:21 PM 32.0 °F 21.6 °F 26.6 °F 80% 29.90 in 10.0 mi SSE 15.0 mph - N/A   Overcast
11:40 PM 32.0 °F 21.6 °F 24.8 °F 75% 29.89 in 10.0 mi SSE 15.0 mph 19.6 mph N/A   Mostly Cloudy